"Pseudo-MPEC" for P11VP16

Created 2024 Jul 18 12:22:05 UT using Find_Orb

Click here for an explanation of pseudo-MPECs

 
 Astrometry: 
     P11VP16* C2024 06 28.40864116 56 22.457+17 38 38.97   ~6SCM 23.08wXNEOCPF51
     P11VP16  C2024 06 28.42098416 56 22.886+17 38 26.38   ~6SCM 22.54wXNEOCPF51
     P11VP16  C2024 06 28.43325716 56 23.254+17 38 14.02   ~6SCM 22.57wXNEOCPF51

Station data:
(F51) Pan-STARRS 1, Haleakala  (N20.707234 W156.255910)  US/Hawaii.
   Observers J. Bulger, T. Lowe, A. Schultz, M. Willman. Measurers K.
   Chambers, S. Chastel, T. de Boer, L. Denneau, J. Fairlamb, H. Flewelling,
   M. Huber, C.-C. Lin, E. Magnier, Y. Ramanjooloo, R. Wainscoat, R. Weryk.
   1.8-m Ritchey-Chrétien + CCD.

Orbital elements:  P11VP16
   Perihelion 2024 Apr 28.84122 +/- 42.8 TT = 20:11:21 (JD 2460429.34122)
Epoch 2024 Jun 28.0 TT = JDT 2460489.5   Earth MOID: 0.0188   Ma: 0.0589
M   5.22383230 +/- 26               (J2000 ecliptic)             AutoNEOCP
n   0.08683407 +/- 0.195            Peri.  286.40485 +/- 100
a   5.05059563 +/- 7.57             Node   255.36489 +/- 53
e   0.8701334 +/- 0.257             Incl.   32.12140 +/- 9
P  11.35047                H 22.96  G  0.15   U 11.6  SR
q 0.65590363 +/- 0.343    Q 9.44528762 +/- 53.1
From 3 observations 2024 June 28 (35.4 min); mean residual 0".15
Residuals in arcseconds: 
240628 F51  .15-  .03+    240628 F51  .29+  .06-    240628 F51  .15-  .03+    

Ephemerides (geocentric):
Date (UTC) HH   RA             Dec           delta  r     elong  mag " sig PA
---- --------  ------------   ------------  ------ ------ -----  --- --------
2024 07 18 12  17 08 26.735   +13 14 11.69  .69755 1.5419 127.3 24.5  39d  80
2024 07 18 13  17 08 28.298   +13 13 42.99  .69832 1.5425 127.2 24.5  39d  80
2024 07 18 14  17 08 29.861   +13 13 14.31  .69909 1.5430 127.2 24.5  39d  80
2024 07 18 15  17 08 31.425   +13 12 45.63  .69987 1.5436 127.2 24.5  39d  80
2024 07 18 16  17 08 32.990   +13 12 16.97  .70064 1.5441 127.2 24.5  39d  80
2024 07 18 17  17 08 34.556   +13 11 48.31  .70141 1.5447 127.2 24.5  39d  80
2024 07 18 18  17 08 36.123   +13 11 19.67  .70219 1.5452 127.2 24.5  39d  80
2024 07 18 19  17 08 37.691   +13 10 51.04  .70296 1.5457 127.1 24.5  39d  80
2024 07 18 20  17 08 39.259   +13 10 22.41  .70373 1.5463 127.1 24.5  39d  80
2024 07 18 21  17 08 40.829   +13 09 53.80  .70451 1.5468 127.1 24.5  39d  80
2024 07 18 22  17 08 42.399   +13 09 25.19  .70528 1.5474 127.1 24.5  39d  80
2024 07 18 23  17 08 43.970   +13 08 56.60  .70605 1.5479 127.1 24.5  39d  80
2024 07 19 00  17 08 45.542   +13 08 28.01  .70683 1.5485 127.0 24.5  39d  80
2024 07 19 01  17 08 47.115   +13 07 59.44  .70760 1.5490 127.0 24.5  40d  80
2024 07 19 02  17 08 48.688   +13 07 30.87  .70838 1.5496 127.0 24.5  40d  80
2024 07 19 03  17 08 50.263   +13 07 02.31  .70915 1.5501 127.0 24.5  40d  80
2024 07 19 04  17 08 51.838   +13 06 33.77  .70992 1.5507 127.0 24.5  40d  80
2024 07 19 05  17 08 53.414   +13 06 05.23  .71070 1.5512 127.0 24.5  40d  80
2024 07 19 06  17 08 54.991   +13 05 36.71  .71147 1.5518 126.9 24.5  40d  80
2024 07 19 07  17 08 56.569   +13 05 08.19  .71225 1.5523 126.9 24.5  40d  80
2024 07 19 08  17 08 58.148   +13 04 39.68  .71302 1.5529 126.9 24.5  40d  80
2024 07 19 09  17 08 59.727   +13 04 11.19  .71380 1.5534 126.9 24.5  40d  80
2024 07 19 10  17 09 01.308   +13 03 42.70  .71457 1.5539 126.9 24.5  40d  80
2024 07 19 11  17 09 02.889   +13 03 14.22  .71535 1.5545 126.9 24.5  40d  80
2024 07 19 12  17 09 04.471   +13 02 45.75  .71612 1.5550 126.8 24.5  40d  80
2024 07 19 13  17 09 06.054   +13 02 17.29  .71690 1.5556 126.8 24.5  40d  80
2024 07 19 14  17 09 07.638   +13 01 48.85  .71768 1.5561 126.8 24.5  40d  80
2024 07 19 15  17 09 09.222   +13 01 20.41  .71845 1.5567 126.8 24.5  40d  80
2024 07 19 16  17 09 10.808   +13 00 51.98  .71923 1.5572 126.8 24.5  40d  80
2024 07 19 17  17 09 12.394   +13 00 23.56  .72000 1.5578 126.8 24.5  40d  80
2024 07 19 18  17 09 13.982   +12 59 55.15  .72078 1.5583 126.7 24.6  40d  80
2024 07 19 19  17 09 15.570   +12 59 26.75  .72156 1.5589 126.7 24.6  40d  80
2024 07 19 20  17 09 17.159   +12 58 58.36  .72233 1.5594 126.7 24.6  40d  80
2024 07 19 21  17 09 18.749   +12 58 29.97  .72311 1.5600 126.7 24.6  40d  80
2024 07 19 22  17 09 20.340   +12 58 01.60  .72389 1.5605 126.7 24.6  40d  80
2024 07 19 23  17 09 21.931   +12 57 33.24  .72467 1.5610 126.7 24.6  40d  80
2024 07 20 00  17 09 23.524   +12 57 04.89  .72544 1.5616 126.6 24.6  40d  80
2024 07 20 01  17 09 25.117   +12 56 36.54  .72622 1.5621 126.6 24.6  40d  80
2024 07 20 02  17 09 26.711   +12 56 08.21  .72700 1.5627 126.6 24.6  40d  80
2024 07 20 03  17 09 28.306   +12 55 39.88  .72777 1.5632 126.6 24.6  40d  80
2024 07 20 04  17 09 29.902   +12 55 11.57  .72855 1.5638 126.6 24.6  40d  80
2024 07 20 05  17 09 31.499   +12 54 43.26  .72933 1.5643 126.6 24.6  40d  80
2024 07 20 06  17 09 33.097   +12 54 14.97  .73011 1.5649 126.5 24.6  40d  80
2024 07 20 07  17 09 34.696   +12 53 46.68  .73089 1.5654 126.5 24.6  40d  80
2024 07 20 08  17 09 36.295   +12 53 18.40  .73167 1.5660 126.5 24.6  40d  80
2024 07 20 09  17 09 37.895   +12 52 50.14  .73244 1.5665 126.5 24.6  40d  80
2024 07 20 10  17 09 39.497   +12 52 21.88  .73322 1.5670 126.5 24.6  40d  80
2024 07 20 11  17 09 41.099   +12 51 53.63  .73400 1.5676 126.4 24.6  40d  80